Antwerp, Belgium

4:19 AM CEST on October 18, 2017 (GMT +0200)
Deurne

Weather History for EBAW - March, 2013

Change the Weather History Date:

Thursday, March 7, 2013

  Actual Average Record
Temperature  
Mean Temperature 50 °F -  
Max Temperature 57 °F 52 °F 62 °F (2001)
Min Temperature 44 °F 38 °F 28 °F (2009)
Degree Days  
Heating Degree Days 14    
Moisture  
Dew Point 42 °F    
Average Humidity 72    
Maximum Humidity 100    
Minimum Humidity 49    
Precipitation  
Precipitation 0.08 in - - ()
Sea Level Pressure  
Sea Level Pressure 29.48 in    
Wind  
Wind Speed 4 mph ()    
Max Wind Speed 9 mph    
Max Gust Speed -    
Visibility 4.8 miles    
Events Rain    
Averages and records for this station are not official NWS values.
T = Trace of Precipitation, MM = Missing Value Source: Averaged Metar Reports

Daily Weather History Graph

Daily Weather History Graph

Search for Another Location

Airport or City:

Trip Planner

Search our weather history database for the weather conditions in past years. The results will help you decide how hot, cold, wet, or windy it might be!

Date:

Astronomy

Mar. 07, 2013 Rise Set
Actual Time 7:13 AM CET 6:33 PM CET
Civil Twilight 6:40 AM CET 7:06 PM CET
Nautical Twilight 6:02 AM CET 7:44 PM CET
Astronomical Twilight 5:23 AM CET 8:23 PM CET
Moon 4:27 AM CET (3/7) 1:39 PM CET (3/7)
Length of Visible Light 12h 25m
Length of Day
11h 19m
Waning Crescent, 22% of the Moon is Illuminated
Mar 7
Waning Crescent
Mar 11
New
Mar 19
First Quarter
Mar 27
Full
Apr 3
Last Quarter

Hourly Weather History & Observations

Time (CET) Temp. Windchill Dew Point Humidity Pressure Visibility Wind Dir Wind Speed Gust Speed Precip Events Conditions
12:20 AM 48.2 °F - 33.8 °F 58% 29.53 in - East 5.8 mph - N/A   Clear
12:50 AM 46.4 °F 43.5 °F 33.8 °F 62% 29.50 in - East 5.8 mph - N/A   Clear
1:00 AM 47 °F - 34 °F 49% 29.53 in 10 mi East 4.5 mph - -   Partly Cloudy
1:20 AM 48.2 °F - 33.8 °F 58% 29.50 in - East 3.5 mph - N/A   Clear
1:50 AM 48.2 °F - 33.8 °F 58% 29.50 in - East 3.5 mph - N/A   Clear
2:20 AM 46.4 °F 44.3 °F 35.6 °F 66% 29.50 in - East 4.6 mph - N/A   Clear
2:50 AM 46.4 °F 44.3 °F 35.6 °F 66% 29.50 in - East 4.6 mph - N/A   Clear
3:20 AM 46.4 °F 44.3 °F 37.4 °F 71% 29.50 in - East 4.6 mph - N/A   Clear
3:50 AM 46.4 °F - 33.8 °F 62% 29.50 in - East 2.3 mph - N/A   Clear
4:00 AM 47 °F - 35 °F 51% 29.51 in 10 mi East 2.2 mph - -   Scattered Clouds
4:20 AM 44.6 °F 43.1 °F 37.4 °F 76% 29.50 in 6.2 mi East 3.5 mph - N/A   Partly Cloudy
4:50 AM 44.6 °F 43.1 °F 37.4 °F 76% 29.50 in - ESE 3.5 mph - N/A   Clear
5:20 AM 48.2 °F - 33.8 °F 58% 29.47 in - Variable 1.2 mph - N/A   Clear
5:50 AM 46.4 °F - 35.6 °F 66% 29.47 in - Variable 2.3 mph - N/A   Clear
6:20 AM 46.4 °F 41.9 °F 35.6 °F 66% 29.50 in - East 9.2 mph - N/A   Clear
6:50 AM 48.2 °F - 33.8 °F 58% 29.47 in - SSW 3.5 mph - N/A   Clear
7:00 AM 48 °F - 35 °F 49% 29.50 in 9 mi SSW 2.2 mph - -   Partly Cloudy
7:20 AM 46.4 °F 42.4 °F 35.6 °F 66% 29.50 in - ENE 8.1 mph - N/A   Clear
7:50 AM 48.2 °F - 35.6 °F 62% 29.47 in - SW 5.8 mph - N/A   Clear
8:20 AM 48.2 °F - 37.4 °F 66% 29.50 in - East 6.9 mph - N/A   Clear
8:50 AM 50.0 °F - 37.4 °F 62% 29.50 in - Variable 2.3 mph - N/A   Clear
9:20 AM 50.0 °F - 39.2 °F 66% 29.50 in - ENE 5.8 mph - N/A   Clear
9:50 AM 50.0 °F - 39.2 °F 66% 29.50 in - SE 6.9 mph - N/A   Clear
10:00 AM 49 °F - 39 °F 59% 29.52 in 9 mi SE 6.7 mph - -   Overcast
10:20 AM 51.8 °F - 37.4 °F 58% 29.50 in - SSW 3.5 mph - N/A   Clear
10:50 AM 53.6 °F - 41.0 °F 62% 29.50 in - SE 4.6 mph - N/A   Clear
11:20 AM 53.6 °F - 41.0 °F 62% 29.50 in - South 5.8 mph - N/A   Clear
11:50 AM 55.4 °F - 44.6 °F 67% 29.50 in - South 6.9 mph - N/A   Clear
12:20 PM 55.4 °F - 42.8 °F 63% 29.50 in - SSW 8.1 mph - N/A   Clear
12:50 PM 57.2 °F - 44.6 °F 63% 29.50 in - SSW 4.6 mph - N/A   Clear
1:00 PM 57 °F - 45 °F 53% 29.50 in 6 mi SSW 4.5 mph - -   Overcast
1:20 PM 57.2 °F - 44.6 °F 63% 29.47 in - South 5.8 mph - N/A   Clear
1:50 PM 57.2 °F - 44.6 °F 63% 29.47 in - South 4.6 mph - N/A   Clear
2:20 PM 57.2 °F - 46.4 °F 67% 29.47 in 6.2 mi SSE 4.6 mph - N/A Rain Light Rain
2:50 PM 57.2 °F - 46.4 °F 67% 29.47 in 6.2 mi SSE 5.8 mph - N/A   Partly Cloudy
3:20 PM 57.2 °F - 46.4 °F 67% 29.47 in 6.2 mi SSE 5.8 mph - N/A   Partly Cloudy
3:50 PM 57.2 °F - 46.4 °F 67% 29.44 in 6.2 mi SE 5.8 mph - N/A   Mostly Cloudy
4:00 PM 57 °F - 46 °F 57% 29.47 in 7 mi SE 6.7 mph - -   Partly Cloudy
4:20 PM 55.4 °F - 46.4 °F 72% 29.44 in 6.2 mi Variable 2.3 mph - N/A   Mostly Cloudy
4:50 PM 55.4 °F - 48.2 °F 77% 29.44 in 6.2 mi East 4.6 mph - N/A Rain Light Rain
5:20 PM 53.6 °F - 48.2 °F 82% 29.44 in 6.2 mi ENE 3.5 mph - N/A   Mostly Cloudy
5:50 PM 53.6 °F - 50.0 °F 88% 29.44 in 3.7 mi ESE 4.6 mph - N/A Rain Light Rain
6:20 PM 51.8 °F - 50.0 °F 94% 29.44 in 5.0 mi East 4.6 mph - N/A Rain Light Rain
6:50 PM 51.8 °F - 48.2 °F 88% 29.47 in 4.3 mi East 4.6 mph - N/A Rain Light Rain
7:00 PM 51 °F - 49 °F 90% 29.48 in 4 mi East 4.5 mph - - Rain Light Rain
7:20 PM 51.8 °F - 50.0 °F 94% 29.47 in 2.8 mi South 3.5 mph - N/A Rain Light Rain
7:50 PM 51.8 °F - 50.0 °F 94% 29.47 in 2.2 mi SSE 6.9 mph - N/A Rain Light Rain
8:20 PM 50.0 °F - 50.0 °F 100% 29.47 in - ESE 3.5 mph - N/A Rain Light Rain
8:50 PM 50.0 °F - 50.0 °F 100% 29.47 in 1.6 mi East 3.5 mph - N/A Rain Light Rain
9:20 PM 50.0 °F - 50.0 °F 100% 29.47 in 1.6 mi ESE 4.6 mph - N/A Rain Light Rain
9:50 PM 50.0 °F - 48.2 °F 94% 29.47 in 1.9 mi ESE 3.5 mph - N/A Rain Light Rain
10:00 PM 50 °F - 49 °F 94% 29.48 in 2 mi ESE 4.5 mph - - Rain Light Rain
10:20 PM 50.0 °F - 48.2 °F 94% 29.47 in 1.6 mi ESE 4.6 mph - N/A   Mostly Cloudy
10:50 PM 50.0 °F - 48.2 °F 94% 29.47 in 1.2 mi SE 3.5 mph - N/A   Mostly Cloudy
11:20 PM 50.0 °F - 48.2 °F 94% 29.47 in 1.3 mi SE 3.5 mph - N/A   Overcast
11:50 PM 48.2 °F - 48.2 °F 100% 29.47 in 1.1 mi ESE 4.6 mph - N/A   Overcast